Conway, MI

4:26 AM EST on February 07, 2016 (GMT -0500)
Harbor Springs

Weather History for KMGN - December, 2012

Change the Weather History Date:

Sunday, December 2, 2012

  Actual Average (KPLN) Record (KPLN)
Temperature  
Mean Temperature 42 °F -  
Max Temperature 47 °F 33 °F 64 °F (1982)
Min Temperature 37 °F 19 °F -18 °F (1976)
Degree Days  
Heating Degree Days 23    
Moisture  
Dew Point 39 °F    
Average Humidity 91    
Maximum Humidity 97    
Minimum Humidity 83    
Precipitation  
Precipitation 0.00 in - - ()
Sea Level Pressure  
Sea Level Pressure 29.91 in    
Wind  
Wind Speed 4 mph (West)    
Max Wind Speed 12 mph    
Max Gust Speed 16 mph    
Visibility 6 miles    
Events Rain    
Averages and records for this station are not official NWS values.
T = Trace of Precipitation, MM = Missing Value Source: NWS Daily Summary

Daily Weather History Graph

Daily Weather History Graph

Search for Another Location

Airport or City:

Trip Planner

Search our weather history database for the weather conditions in past years. The results will help you decide how hot, cold, wet, or windy it might be!

Date:

Astronomy

Dec. 02, 2012 Rise Set
Actual Time 8:00 AM EST 4:57 PM EST
Civil Twilight 7:27 AM EST 5:31 PM EST
Nautical Twilight 6:50 AM EST 6:08 PM EST
Astronomical Twilight 6:14 AM EST 6:43 PM EST
Moon 8:49 PM EST (12/2) 10:46 AM EST (12/2)
Length of Visible Light 10h 03m
Length of Day
8h 56m
Waning Gibbous, 86% of the Moon is Illuminated
Dec 2
Waning Gibbous
Dec 6
Last Quarter
Dec 13
New
Dec 20
First Quarter
Dec 28
Full

Hourly Weather History & Observations

Time (EST) Temp. Windchill Dew Point Humidity Pressure Visibility Wind Dir Wind Speed Gust Speed Precip Events Conditions
12:14 AM 41.9 °F - 40.8 °F 96% 29.80 in 3.0 mi Calm Calm - N/A   Overcast
12:35 AM 42.1 °F 39.2 °F 40.8 °F 95% 29.80 in 2.5 mi WNW 4.6 mph - N/A   Overcast
12:55 AM 43.0 °F 40.3 °F 41.9 °F 96% 29.79 in 2.0 mi WNW 4.6 mph - N/A   Overcast
1:14 AM 42.1 °F - 41.0 °F 96% 29.79 in 2.0 mi Calm Calm - N/A   Overcast
1:35 AM 45.5 °F 44.2 °F 44.4 °F 96% 29.78 in 2.5 mi SW 3.5 mph - N/A   Overcast
1:55 AM 45.1 °F - 44.1 °F 96% 29.78 in 1.5 mi Calm Calm - N/A   Overcast
2:14 AM 45.7 °F - 44.4 °F 95% 29.78 in 1.2 mi Calm Calm - N/A   Overcast
2:35 AM 45.9 °F 42.9 °F 45.0 °F 97% 29.78 in 2.0 mi SSW 5.8 mph - N/A   Overcast
2:55 AM 46.0 °F 42.5 °F 45.1 °F 97% 29.78 in 1.8 mi SSW 6.9 mph - N/A   Overcast
3:14 AM 46.2 °F 42.7 °F 45.3 °F 97% 29.79 in 1.2 mi SW 6.9 mph - N/A   Overcast
3:35 AM 45.7 °F 42.7 °F 44.8 °F 97% 29.79 in 0.2 mi SW 5.8 mph - N/A Rain Light Rain
3:55 AM 47.5 °F - 46.8 °F 97% 29.79 in 0.5 mi WSW 11.5 mph - N/A Rain Light Rain
4:14 AM 47.1 °F - 46.4 °F 97% 29.79 in 0.8 mi WSW 11.5 mph - N/A   Light Drizzle
4:35 AM 45.7 °F 40.6 °F 45.0 °F 97% 29.78 in 1.0 mi WSW 10.4 mph 16.1 mph N/A   Overcast
4:55 AM 45.7 °F 41.0 °F 44.8 °F 97% 29.78 in 1.2 mi WSW 9.2 mph - N/A   Overcast
5:14 AM 45.5 °F 40.8 °F 44.6 °F 97% 29.78 in 1.0 mi WSW 9.2 mph - N/A   Overcast
5:35 AM 45.5 °F 41.3 °F 44.8 °F 97% 29.79 in 1.5 mi West 8.1 mph 16.1 mph N/A   Overcast
5:55 AM 45.3 °F 41.6 °F 44.6 °F 97% 29.79 in 1.2 mi West 6.9 mph - N/A   Overcast
6:14 AM 44.1 °F 39.0 °F 43.3 °F 97% 29.80 in 1.8 mi West 9.2 mph 16.1 mph N/A   Overcast
6:35 AM 43.0 °F 39.5 °F 42.1 °F 97% 29.80 in 2.5 mi West 5.8 mph - N/A   Overcast
6:55 AM 42.6 °F 40.9 °F 41.5 °F 96% 29.80 in 2.5 mi WSW 3.5 mph - N/A   Overcast
7:14 AM 42.3 °F 40.5 °F 41.2 °F 96% 29.81 in 3.0 mi WSW 3.5 mph - N/A   Overcast
7:35 AM 42.1 °F - 41.0 °F 96% 29.81 in 3.0 mi Calm Calm - N/A   Overcast
7:55 AM 41.9 °F 39.0 °F 40.6 °F 95% 29.81 in 3.0 mi West 4.6 mph - N/A   Overcast
8:14 AM 41.9 °F 39.0 °F 40.5 °F 95% 29.82 in 3.0 mi West 4.6 mph - N/A   Overcast
8:35 AM 41.5 °F 38.6 °F 40.3 °F 95% 29.83 in 3.0 mi West 4.6 mph - N/A   Overcast
8:55 AM 41.4 °F 39.4 °F 39.9 °F 95% 29.84 in 3.0 mi West 3.5 mph - N/A   Overcast
9:14 AM 41.4 °F 38.4 °F 39.7 °F 94% 29.86 in 3.0 mi WNW 4.6 mph - N/A   Overcast
9:35 AM 41.4 °F 37.6 °F 39.6 °F 93% 29.87 in 4.0 mi West 5.8 mph - N/A   Overcast
9:55 AM 41.0 °F 38.0 °F 38.8 °F 92% 29.87 in 4.0 mi WNW 4.6 mph - N/A   Overcast
10:14 AM 41.0 °F - 38.7 °F 91% 29.88 in 5.0 mi Calm Calm - N/A   Overcast
10:35 AM 40.5 °F - 38.3 °F 92% 29.89 in 7.0 mi Calm Calm - N/A   Overcast
11:14 AM 41.0 °F 36.4 °F 38.3 °F 90% 29.90 in 7.0 mi WNW 6.9 mph - N/A   Overcast
11:35 AM 40.5 °F 36.5 °F 37.4 °F 89% 29.91 in 7.0 mi WNW 5.8 mph - N/A   Overcast
11:54 AM 40.5 °F 37.3 °F 37.2 °F 88% 29.91 in 7.0 mi WNW 4.6 mph - N/A   Overcast
12:15 PM 40.5 °F 34.6 °F 37.0 °F 88% 29.91 in 7.0 mi WNW 9.2 mph - N/A   Overcast
12:35 PM 40.6 °F 35.4 °F 36.9 °F 86% 29.91 in 7.0 mi WNW 8.1 mph - N/A   Overcast
12:54 PM 41.0 °F 35.8 °F 37.0 °F 86% 29.91 in 7.0 mi WNW 8.1 mph - N/A   Overcast
1:15 PM 41.0 °F 36.4 °F 37.0 °F 86% 29.92 in 7.0 mi West 6.9 mph - N/A   Overcast
1:35 PM 41.4 °F 36.2 °F 36.9 °F 84% 29.92 in 10.0 mi WNW 8.1 mph - N/A   Overcast
1:54 PM 41.2 °F 36.6 °F 36.5 °F 83% 29.92 in 10.0 mi West 6.9 mph - N/A   Overcast
2:15 PM 41.0 °F 36.4 °F 36.1 °F 83% 29.93 in 10.0 mi West 6.9 mph - N/A   Overcast
2:35 PM 40.6 °F 36.0 °F 36.3 °F 85% 29.94 in 10.0 mi WNW 6.9 mph - N/A   Overcast
2:54 PM 40.6 °F 37.5 °F 36.3 °F 85% 29.94 in 10.0 mi West 4.6 mph - N/A   Overcast
3:15 PM 40.3 °F 36.3 °F 36.0 °F 85% 29.94 in 10.0 mi WNW 5.8 mph - N/A   Overcast
3:35 PM 40.3 °F 35.5 °F 35.8 °F 84% 29.97 in 10.0 mi West 6.9 mph - N/A   Overcast
3:54 PM 40.1 °F 38.0 °F 35.8 °F 85% 29.97 in 10.0 mi West 3.5 mph - N/A   Overcast
4:15 PM 40.1 °F 38.0 °F 35.8 °F 85% 29.98 in 10.0 mi West 3.5 mph - N/A   Overcast
4:35 PM 40.1 °F 38.0 °F 35.8 °F 85% 29.99 in 10.0 mi WNW 3.5 mph - N/A   Overcast
4:54 PM 40.1 °F - 35.8 °F 85% 30.00 in 10.0 mi Calm Calm - N/A   Overcast
5:15 PM 40.1 °F - 35.8 °F 85% 30.01 in 10.0 mi Calm Calm - N/A   Overcast
5:35 PM 39.0 °F 36.8 °F 35.8 °F 88% 30.01 in 10.0 mi WSW 3.5 mph - N/A   Overcast
5:54 PM 39.7 °F - 35.8 °F 86% 30.01 in 10.0 mi Calm Calm - N/A   Overcast
6:15 PM 38.7 °F - 35.1 °F 87% 30.02 in 10.0 mi Calm Calm - N/A   Overcast
6:35 PM 37.8 °F - 35.1 °F 90% 30.04 in 10.0 mi Calm Calm - N/A   Overcast
6:54 PM 39.2 °F - 35.8 °F 88% 30.04 in 10.0 mi Calm Calm - N/A   Overcast
7:15 PM 39.2 °F 37.0 °F 35.6 °F 87% 30.05 in 10.0 mi West 3.5 mph - N/A   Overcast
7:35 PM 39.4 °F 37.2 °F 35.4 °F 86% 30.05 in 10.0 mi WNW 3.5 mph - N/A   Overcast
7:54 PM 38.8 °F - 35.1 °F 86% 30.06 in 10.0 mi Calm Calm - N/A   Overcast
8:15 PM 37.6 °F - 35.4 °F 92% 30.06 in 10.0 mi Calm Calm - N/A   Overcast
8:34 PM 37.6 °F 34.0 °F 35.6 °F 93% 30.07 in 7.0 mi North 4.6 mph - N/A   Overcast
8:55 PM 37.6 °F 35.1 °F 35.2 °F 91% 30.07 in 10.0 mi North 3.5 mph - N/A   Overcast
9:15 PM 37.8 °F 34.2 °F 35.1 °F 90% 30.07 in 10.0 mi NNE 4.6 mph - N/A   Overcast
9:34 PM 37.6 °F - 34.9 °F 90% 30.07 in 10.0 mi Calm Calm - N/A   Overcast
9:55 PM 37.6 °F - 35.6 °F 93% 30.07 in 10.0 mi Calm Calm - N/A   Overcast
10:15 PM 37.6 °F - 35.2 °F 91% 30.08 in 10.0 mi Calm Calm - N/A   Overcast
10:34 PM 37.6 °F - 35.6 °F 93% 30.08 in 7.0 mi Calm Calm - N/A   Overcast
10:55 PM 37.6 °F - 35.8 °F 93% 30.07 in 7.0 mi Calm Calm - N/A   Overcast
11:15 PM 37.6 °F - 35.8 °F 93% 30.07 in 7.0 mi Calm Calm - N/A   Overcast
11:35 PM 37.6 °F - 35.8 °F 93% 30.08 in 7.0 mi Calm Calm - N/A   Overcast
11:55 PM 37.6 °F - 35.8 °F 93% 30.07 in 7.0 mi Calm Calm - N/A   Overcast